Powrót do katalogu

COSMOS 2157

AktywnyMilitariaPO
NORAD 21728·PAYLOAD·🇷🇺 Russia

Wystrzelony Sep 28, 1991 z Plesetsk Cosmodrome

Loading…

Następne Przeloty (najbliższe 24 godziny)

TLE

ŚwieżeSource: Space-Track

Epoka: Sep 14, 2026, 10:36 UTC

1 21728U 91068A   26257.44217993  .00000000  00000-0 -56180-4 0  9990
2 21728  82.5737 260.7330 0003869 310.5329  49.5425 12.63252061611986

Śledź COSMOS 2157 w czasie rzeczywistym z AllMySat

Download on the App Store